Location: Unspecified
(41.5000°N, 0.0000°E)
Time: 03:30:11
(UTC+00:00)

Courier 1B Rocket - Pass Details

Date: 25 June 2019
Orbit: 920 x 1202 km, 28.2° (Epoch: 16 July)

Event Time Altitude Azimuth Distance (km) Brightness Sun altitude
Rises 02:34:54 0° 222° (SW) 3,969 - -16.1°
Reaches altitude 10° 02:38:39 10° 206° (SSW) 2,960 - -15.7°
Exits shadow 02:41:10 16° 187° (S) 2,476 6.6 -15.4°
Maximum altitude 02:43:27 19° 164° (SSE) 2,292 6.6 -15.2°
Drops below altitude 10° 02:48:03 10° 122° (ESE) 2,821 7.5 -14.6°
Sets 02:51:30 0° 105° (ESE) 3,721 8.4 -14.2°
